QPF
0.00 0.00 0.00 0.00 0.00 0.00 0.00 0.01 0.02 0.02 0.04 0.04 0.04 0.03 0.03 0.01 0.00 0.01 0.03 0.03 0.03 0.03 0.03 0.04 0.04 0.05 0.04 0.04 0.04 0.06 0.05 0.03 0.03 0.01 0.01 0.01 0.02 0.01 0.02 0.02 0.02 0.02 0.02 0.02
0.00 0.00 0.00 0.00 0.00 0.00 0.00 0.01 0.02 0.02 0.03 0.04 0.03 0.01 0.01 0.01 0.01 0.00 0.03 0.04 0.04 0.03 0.03 0.03 0.04 0.04 0.04 0.05 0.05 0.05 0.06 0.04 0.04 0.03 0.01 0.01 0.02 0.02 0.02 0.02 0.02 0.02 0.02 0.01
0.00 0.00 0.00 0.00 0.00 0.00 0.00 0.00 0.01 0.01 0.02 0.04 0.04 0.03 0.01 0.01 0.01 0.01 0.01 0.03 0.05 0.04 0.02 0.01 0.02 0.04 0.05 0.06 0.06 0.05 0.05 0.04 0.04 0.04 0.03 0.03 0.04 0.04 0.04 0.02 0.02 0.02 0.02 0.01
0.00 0.00 0.00 0.00 0.00 0.00 0.00 0.00 0.00 0.01 0.01 0.03 0.04 0.03 0.01 0.00 0.00 0.00 0.01 0.01 0.02 0.02 0.02 0.01 0.01 0.02 0.03 0.05 0.05 0.06 0.05 0.04 0.04 0.05 0.04 0.03 0.04 0.06 0.05 0.04 0.02 0.02 0.01 0.01
0.00 0.00 0.00 0.00 0.00 0.00 0.00 0.00 0.00 0.01 0.02 0.03 0.05 0.04 0.02 0.00 0.00 0.00 0.00 0.00 0.00 0.01 0.01 0.01 0.01 0.01 0.01 0.02 0.03 0.06 0.07 0.07 0.07 0.06 0.04 0.03 0.02 0.03 0.03 0.03 0.01 0.01 0.01 0.01
0.00 0.00 0.00 0.00 0.00 0.00 0.00 0.00 0.01 0.02 0.03 0.03 0.02 0.03 0.02 0.01 0.00 0.00 0.00 0.00 0.00 0.01 0.01 0.01 0.01 0.01 0.01 0.01 0.01 0.03 0.05 0.07 0.05 0.06 0.05 0.03 0.03 0.02 0.02 0.02 0.01 0.01 0.01 0.02
0.00 0.00 0.00 0.00 0.00 0.00 0.00 0.01 0.02 0.02 0.03 0.03 0.01 0.01 0.01 0.00 0.00 0.00 0.00 0.00 0.01 0.01 0.01 0.01 0.00 0.01 0.01 0.01 0.01 0.01 0.03 0.04 0.05 0.05 0.04 0.03 0.03 0.03 0.02 0.02 0.01 0.01 0.01 0.01
0.00 0.00 0.00 0.00 0.00 0.00 0.00 0.01 0.01 0.01 0.01 0.01 0.02 0.01 0.01 0.00 0.00 0.00 0.00 0.00 0.00 0.01 0.01 0.00 0.00 0.00 0.01 0.01 0.01 0.00 0.02 0.03 0.04 0.05 0.06 0.05 0.04 0.03 0.02 0.02 0.03 0.02 0.02 0.02
0.00 0.00 0.00 0.00 0.00 0.00 0.00 0.01 0.01 0.01 0.01 0.01 0.02 0.02 0.01 0.00 0.00 0.00 0.00 0.00 0.00 0.01 0.01 0.01 0.01 0.01 0.01 0.01 0.01 0.01 0.02 0.03 0.04 0.04 0.04 0.05 0.04 0.03 0.03 0.03 0.03 0.03 0.03 0.03
0.00 0.00 0.00 0.00 0.01 0.00 0.01 0.01 0.03 0.02 0.01 0.01 0.02 0.02 0.01 0.01 0.01 0.00 0.00 0.00 0.00 0.00 0.01 0.01 0.01 0.01 0.01 0.01 0.01 0.01 0.02 0.03 0.03 0.03 0.03 0.04 0.06 0.05 0.04 0.03 0.02 0.03 0.03 0.03
0.00 0.00 0.00 0.01 0.01 0.01 0.01 0.01 0.02 0.02 0.02 0.01 0.01 0.01 0.01 0.02 0.02 0.01 0.00 0.00 0.00 0.01 0.01 0.01 0.01 0.01 0.01 0.01 0.01 0.01 0.02 0.03 0.02 0.02 0.02 0.03 0.04 0.03 0.03 0.02 0.02 0.02 0.02 0.02
0.01 0.01 0.00 0.00 0.00 0.01 0.01 0.01 0.02 0.02 0.01 0.01 0.01 0.01 0.00 0.01 0.02 0.01 0.00 0.00 0.00 0.00 0.00 0.00 0.01 0.01 0.01 0.02 0.02 0.01 0.03 0.03 0.02 0.01 0.01 0.02 0.03 0.02 0.02 0.03 0.02 0.02 0.02 0.02
0.01 0.01 0.00 0.00 0.00 0.01 0.01 0.01 0.02 0.03 0.02 0.01 0.01 0.01 0.00 0.00 0.02 0.02 0.01 0.01 0.01 0.01 0.00 0.00 0.00 0.01 0.01 0.01 0.02 0.02 0.03 0.03 0.02 0.02 0.01 0.01 0.02 0.02 0.03 0.03 0.03 0.03 0.03 0.02
0.01 0.01 0.01 0.00 0.00 0.00 0.01 0.02 0.02 0.03 0.03 0.01 0.01 0.01 0.00 0.00 0.01 0.01 0.01 0.01 0.01 0.01 0.01 0.00 0.01 0.01 0.01 0.01 0.02 0.01 0.01 0.03 0.03 0.03 0.02 0.01 0.02 0.02 0.03 0.03 0.05 0.05 0.04 0.03
0.01 0.01 0.01 0.00 0.00 0.00 0.01 0.01 0.02 0.03 0.03 0.02 0.01 0.01 0.00 0.00 0.00 0.01 0.01 0.01 0.01 0.02 0.02 0.01 0.01 0.01 0.00 0.01 0.02 0.02 0.01 0.02 0.03 0.02 0.02 0.01 0.02 0.02 0.02 0.03 0.06 0.06 0.05 0.04
0.01 0.01 0.02 0.01 0.00 0.00 0.01 0.01 0.02 0.02 0.02 0.02 0.01 0.01 0.01 0.00 0.00 0.00 0.01 0.01 0.01 0.01 0.01 0.02 0.02 0.01 0.01 0.01 0.01 0.01 0.02 0.02 0.02 0.01 0.01 0.02 0.02 0.02 0.02 0.02 0.03 0.05 0.07 0.06
0.01 0.02 0.03 0.01 0.01 0.01 0.02 0.02 0.02 0.02 0.02 0.02 0.01 0.01 0.01 0.00 0.00 0.00 0.00 0.01 0.01 0.01 0.01 0.01 0.01 0.01 0.01 0.01 0.01 0.01 0.01 0.02 0.02 0.01 0.01 0.03 0.03 0.03 0.02 0.02 0.02 0.02 0.05 0.08
0.01 0.03 0.04 0.02 0.01 0.02 0.03 0.03 0.02 0.02 0.02 0.02 0.02 0.01 0.00 0.01 0.01 0.01 0.01 0.01 0.02 0.02 0.01 0.01 0.01 0.01 0.01 0.01 0.01 0.01 0.01 0.02 0.02 0.03 0.02 0.04 0.04 0.03 0.03 0.02 0.02 0.02 0.02 0.03
0.02 0.04 0.04 0.02 0.02 0.02 0.02 0.03 0.03 0.04 0.03 0.02 0.02 0.02 0.02 0.01 0.01 0.01 0.01 0.01 0.01 0.01 0.01 0.01 0.01 0.01 0.01 0.01 0.01 0.01 0.01 0.01 0.03 0.04 0.03 0.03 0.04 0.03 0.03 0.03 0.02 0.02 0.01 0.01
0.03 0.04 0.02 0.01 0.01 0.02 0.03 0.03 0.03 0.05 0.05 0.03 0.02 0.02 0.02 0.02 0.02 0.01 0.01 0.00 0.00 0.01 0.01 0.01 0.01 0.01 0.02 0.02 0.02 0.01 0.01 0.01 0.02 0.06 0.07 0.05 0.06 0.06 0.05 0.04 0.04 0.03 0.02 0.02
0.04 0.03 0.02 0.02 0.02 0.02 0.02 0.02 0.02 0.04 0.05 0.03 0.02 0.02 0.01 0.01 0.01 0.01 0.01 0.01 0.01 0.01 0.01 0.01 0.01 0.01 0.01 0.02 0.03 0.02 0.01 0.00 0.01 0.02 0.07 0.09 0.07 0.06 0.07 0.06 0.05 0.04 0.04 0.03
0.03 0.03 0.02 0.02 0.02 0.03 0.02 0.02 0.03 0.04 0.03 0.02 0.01 0.01 0.01 0.01 0.00 0.00 0.01 0.02 0.03 0.02 0.01 0.01 0.01 0.01 0.01 0.02 0.02 0.01 0.00 0.00 0.01 0.01 0.01 0.03 0.04 0.04 0.04 0.07 0.08 0.07 0.05 0.04
0.02 0.03 0.03 0.03 0.04 0.04 0.02 0.02 0.02 0.02 0.02 0.01 0.01 0.01 0.01 0.01 0.00 0.00 0.00 0.01 0.01 0.01 0.01 0.01 0.01 0.02 0.02 0.02 0.02 0.01 0.00 0.00 0.01 0.01 0.01 0.01 0.01 0.01 0.02 0.04 0.07 0.10 0.09 0.07
0.01 0.01 0.02 0.02 0.03 0.03 0.02 0.01 0.01 0.01 0.01 0.01 0.01 0.01 0.01 0.01 0.00 0.00 0.00 0.01 0.01 0.00 0.01 0.01 0.01 0.01 0.02 0.03 0.02 0.02 0.01 0.01 0.01 0.01 0.01 0.01 0.01 0.00 0.01 0.01 0.03 0.05 0.07 0.06
0.01 0.01 0.01 0.02 0.02 0.02 0.01 0.01 0.01 0.01 0.01 0.00 0.00 0.01 0.00 0.01 0.00 0.00 0.00 0.01 0.01 0.00 0.00 0.01 0.01 0.01 0.02 0.01 0.02 0.02 0.01 0.01 0.01 0.02 0.01 0.01 0.00 0.00 0.00 0.00 0.01 0.01 0.03 0.05
0.01 0.02 0.02 0.02 0.02 0.02 0.02 0.01 0.01 0.01 0.01 0.01 0.01 0.00 0.00 0.00 0.00 0.00 0.01 0.01 0.01 0.00 0.00 0.01 0.01 0.02 0.01 0.02 0.01 0.01 0.01 0.01 0.01 0.01 0.01 0.00 0.00 0.00 0.01 0.01 0.01 0.01 0.01 0.03
MSLP
1012.71 1013.38 1013.85 1014.14 1014.28 1014.32 1014.31 1014.26 1014.19 1014.08 1013.92 1013.67 1013.32 1012.88 1012.36 1011.81 1011.28 1010.81 1010.43 1010.15 1009.95 1009.80 1009.67 1009.55 1009.42 1009.28 1009.18 1009.15 1009.22 1009.43 1009.77 1010.22 1010.74 1011.28 1011.77 1012.18 1012.47 1012.65 1012.75 1012.80 1012.86 1012.97 1013.16 1013.44
1013.16 1013.64 1013.92 1014.06 1014.11 1014.14 1014.18 1014.25 1014.33 1014.38 1014.35 1014.18 1013.85 1013.37 1012.78 1012.14 1011.53 1011.00 1010.60 1010.33 1010.18 1010.10 1010.04 1009.95 1009.81 1009.63 1009.43 1009.28 1009.23 1009.32 1009.58 1010.00 1010.52 1011.08 1011.63 1012.08 1012.41 1012.61 1012.70 1012.71 1012.73 1012.79 1012.94 1013.19
1013.32 1013.59 1013.68 1013.68 1013.68 1013.72 1013.87 1014.10 1014.38 1014.61 1014.72 1014.64 1014.34 1013.82 1013.15 1012.41 1011.70 1011.11 1010.69 1010.46 1010.37 1010.38 1010.40 1010.38 1010.26 1010.05 1009.78 1009.53 1009.35 1009.32 1009.48 1009.83 1010.32 1010.89 1011.47 1011.96 1012.32 1012.53 1012.61 1012.60 1012.57 1012.58 1012.69 1012.91
1013.18 1013.24 1013.17 1013.07 1013.05 1013.18 1013.48 1013.91 1014.40 1014.83 1015.09 1015.10 1014.81 1014.24 1013.48 1012.62 1011.81 1011.15 1010.70 1010.49 1010.47 1010.57 1010.69 1010.75 1010.68 1010.48 1010.17 1009.84 1009.56 1009.41 1009.47 1009.74 1010.18 1010.73 1011.30 1011.80 1012.18 1012.41 1012.48 1012.45 1012.39 1012.36 1012.42 1012.60
1012.78 1012.66 1012.47 1012.34 1012.36 1012.61 1013.09 1013.75 1014.46 1015.09 1015.49 1015.56 1015.27 1014.64 1013.76 1012.77 1011.84 1011.09 1010.60 1010.40 1010.44 1010.63 1010.86 1011.02 1011.03 1010.86 1010.55 1010.17 1009.82 1009.59 1009.55 1009.72 1010.09 1010.60 1011.14 1011.64 1012.02 1012.25 1012.32 1012.28 1012.20 1012.14 1012.16 1012.30
1012.20 1011.95 1011.70 1011.58 1011.69 1012.10 1012.78 1013.66 1014.58 1015.38 1015.89 1016.01 1015.69 1014.97 1013.97 1012.85 1011.78 1010.93 1010.39 1010.18 1010.26 1010.54 1010.87 1011.14 1011.25 1011.16 1010.89 1010.51 1010.12 1009.83 1009.71 1009.80 1010.09 1010.53 1011.03 1011.50 1011.87 1012.09 1012.16 1012.12 1012.02 1011.95 1011.94 1012.05
1011.52 1011.21 1010.95 1010.89 1011.12 1011.69 1012.57 1013.63 1014.72 1015.65 1016.23 1016.36 1015.99 1015.18 1014.06 1012.80 1011.61 1010.66 1010.06 1009.84 1009.95 1010.30 1010.73 1011.12 1011.34 1011.35 1011.16 1010.83 1010.45 1010.12 1009.96 1009.98 1010.20 1010.56 1011.00 1011.42 1011.76 1011.97 1012.04 1011.99 1011.90 1011.81 1011.79 1011.88
1010.81 1010.49 1010.28 1010.31 1010.67 1011.39 1012.41 1013.61 1014.80 1015.79 1016.39 1016.49 1016.06 1015.17 1013.94 1012.58 1011.30 1010.28 1009.63 1009.39 1009.53 1009.94 1010.46 1010.96 1011.31 1011.44 1011.36 1011.11 1010.78 1010.47 1010.28 1010.26 1010.41 1010.71 1011.07 1011.44 1011.73 1011.92 1011.98 1011.94 1011.85 1011.77 1011.75 1011.82
1010.12 1009.84 1009.71 1009.84 1010.32 1011.14 1012.24 1013.49 1014.71 1015.68 1016.24 1016.29 1015.81 1014.85 1013.56 1012.15 1010.83 1009.77 1009.11 1008.88 1009.05 1009.50 1010.11 1010.71 1011.17 1011.43 1011.48 1011.34 1011.09 1010.84 1010.67 1010.62 1010.73 1010.96 1011.25 1011.56 1011.80 1011.96 1012.00 1011.97 1011.89 1011.83 1011.81 1011.88
1009.44 1009.25 1009.22 1009.45 1010.00 1010.86 1011.97 1013.19 1014.34 1015.23 1015.72 1015.70 1015.16 1014.18 1012.90 1011.50 1010.21 1009.18 1008.55 1008.35 1008.55 1009.05 1009.71 1010.39 1010.96 1011.34 1011.51 1011.50 1011.37 1011.20 1011.07 1011.04 1011.11 1011.29 1011.53 1011.77 1011.96 1012.09 1012.12 1012.09 1012.03 1011.98 1011.97 1012.03
1008.79 1008.70 1008.77 1009.08 1009.65 1010.49 1011.52 1012.63 1013.64 1014.39 1014.76 1014.68 1014.12 1013.17 1011.96 1010.66 1009.47 1008.55 1007.99 1007.85 1008.09 1008.62 1009.32 1010.05 1010.69 1011.17 1011.46 1011.57 1011.56 1011.49 1011.44 1011.44 1011.52 1011.66 1011.85 1012.04 1012.20 1012.29 1012.31 1012.29 1012.24 1012.20 1012.20 1012.26
1008.14 1008.17 1008.33 1008.68 1009.23 1009.99 1010.88 1011.80 1012.62 1013.20 1013.45 1013.30 1012.76 1011.89 1010.81 1009.68 1008.67 1007.90 1007.47 1007.41 1007.69 1008.23 1008.94 1009.68 1010.36 1010.91 1011.29 1011.52 1011.63 1011.67 1011.70 1011.76 1011.87 1012.01 1012.18 1012.33 1012.45 1012.52 1012.54 1012.52 1012.48 1012.46 1012.46 1012.51
1007.49 1007.63 1007.86 1008.22 1008.72 1009.35 1010.06 1010.76 1011.36 1011.75 1011.87 1011.68 1011.18 1010.44 1009.55 1008.64 1007.85 1007.28 1006.99 1007.01 1007.33 1007.87 1008.55 1009.28 1009.95 1010.53 1010.98 1011.31 1011.53 1011.69 1011.82 1011.96 1012.12 1012.28 1012.44 1012.59 1012.70 1012.76 1012.77 1012.76 1012.74 1012.72 1012.72 1012.75
1006.87 1007.09 1007.36 1007.71 1008.12 1008.60 1009.10 1009.57 1009.94 1010.15 1010.16 1009.94 1009.51 1008.92 1008.25 1007.59 1007.04 1006.67 1006.53 1006.64 1006.97 1007.49 1008.12 1008.79 1009.43 1010.01 1010.51 1010.91 1011.24 1011.51 1011.76 1011.99 1012.22 1012.43 1012.62 1012.77 1012.88 1012.95 1012.98 1012.97 1012.96 1012.96 1012.96 1012.97
1006.28 1006.55 1006.84 1007.14 1007.45 1007.77 1008.06 1008.31 1008.47 1008.51 1008.43 1008.20 1007.85 1007.43 1006.97 1006.54 1006.22 1006.04 1006.04 1006.21 1006.55 1007.02 1007.58 1008.18 1008.77 1009.33 1009.85 1010.32 1010.75 1011.14 1011.50 1011.84 1012.16 1012.44 1012.68 1012.86 1013.00 1013.08 1013.13 1013.15 1013.15 1013.15 1013.15 1013.15
1005.76 1006.04 1006.30 1006.54 1006.75 1006.91 1007.01 1007.06 1007.03 1006.93 1006.77 1006.54 1006.27 1005.98 1005.71 1005.49 1005.36 1005.35 1005.44 1005.66 1005.99 1006.41 1006.89 1007.41 1007.95 1008.49 1009.04 1009.57 1010.09 1010.60 1011.08 1011.54 1011.96 1012.32 1012.62 1012.85 1013.03 1013.14 1013.21 1013.26 1013.29 1013.30 1013.31 1013.29
1005.34 1005.58 1005.80 1005.96 1006.04 1006.06 1006.00 1005.87 1005.69 1005.47 1005.23 1005.00 1004.78 1004.60 1004.47 1004.42 1004.43 1004.53 1004.70 1004.94 1005.25 1005.62 1006.04 1006.50 1007.00 1007.54 1008.11 1008.71 1009.33 1009.95 1010.56 1011.13 1011.65 1012.10 1012.47 1012.76 1012.98 1013.13 1013.24 1013.31 1013.37 1013.40 1013.41 1013.40
1005.05 1005.21 1005.35 1005.41 1005.38 1005.27 1005.06 1004.79 1004.48 1004.16 1003.86 1003.60 1003.41 1003.29 1003.25 1003.29 1003.40 1003.57 1003.78 1004.04 1004.33 1004.66 1005.04 1005.48 1005.97 1006.53 1007.15 1007.83 1008.55 1009.29 1010.01 1010.69 1011.30 1011.83 1012.27 1012.61 1012.87 1013.06 1013.20 1013.30 1013.38 1013.43 1013.45 1013.44
1004.91 1004.97 1004.99 1004.94 1004.80 1004.57 1004.24 1003.86 1003.44 1003.03 1002.66 1002.37 1002.17 1002.07 1002.06 1002.14 1002.29 1002.49 1002.72 1002.99 1003.28 1003.61 1003.99 1004.44 1004.96 1005.57 1006.26 1007.03 1007.84 1008.68 1009.50 1010.27 1010.96 1011.55 1012.04 1012.42 1012.71 1012.93 1013.09 1013.21 1013.31 1013.38 1013.41 1013.41
1004.93 1004.86 1004.76 1004.60 1004.35 1004.00 1003.58 1003.09 1002.59 1002.10 1001.66 1001.32 1001.07 1000.95 1000.93 1001.01 1001.16 1001.37 1001.62 1001.90 1002.21 1002.56 1002.98 1003.47 1004.06 1004.74 1005.51 1006.36 1007.27 1008.18 1009.07 1009.90 1010.64 1011.27 1011.78 1012.18 1012.49 1012.72 1012.90 1013.03 1013.14 1013.22 1013.27 1013.28
1005.10 1004.90 1004.67 1004.39 1004.04 1003.60 1003.09 1002.53 1001.94 1001.38 1000.88 1000.47 1000.16 999.98 999.92 999.96 1000.10 1000.30 1000.56 1000.86 1001.21 1001.62 1002.10 1002.67 1003.34 1004.10 1004.95 1005.88 1006.84 1007.81 1008.74 1009.59 1010.35 1010.98 1011.49 1011.90 1012.20 1012.43 1012.61 1012.75 1012.86 1012.95 1013.01 1013.03
1005.37 1005.04 1004.70 1004.32 1003.88 1003.37 1002.79 1002.17 1001.52 1000.90 1000.33 999.84 999.47 999.22 999.09 999.09 999.19 999.38 999.64 999.98 1000.38 1000.86 1001.42 1002.07 1002.82 1003.66 1004.58 1005.55 1006.55 1007.53 1008.46 1009.30 1010.04 1010.65 1011.15 1011.53 1011.82 1012.04 1012.21 1012.35 1012.47 1012.56 1012.63 1012.66
1005.65 1005.22 1004.79 1004.34 1003.83 1003.27 1002.66 1001.99 1001.31 1000.63 1000.00 999.45 999.00 998.68 998.48 998.42 998.48 998.66 998.93 999.30 999.76 1000.30 1000.94 1001.66 1002.48 1003.37 1004.32 1005.31 1006.31 1007.27 1008.17 1008.97 1009.67 1010.24 1010.70 1011.06 1011.33 1011.54 1011.70 1011.84 1011.96 1012.06 1012.13 1012.17
1005.82 1005.34 1004.86 1004.36 1003.83 1003.25 1002.61 1001.94 1001.23 1000.53 999.85 999.24 998.73 998.34 998.08 997.96 997.98 998.14 998.42 998.82 999.32 999.92 1000.62 1001.40 1002.25 1003.16 1004.12 1005.08 1006.04 1006.95 1007.79 1008.53 1009.17 1009.70 1010.13 1010.46 1010.72 1010.93 1011.09 1011.24 1011.36 1011.47 1011.56 1011.61
1005.78 1005.27 1004.77 1004.27 1003.75 1003.18 1002.57 1001.90 1001.20 1000.49 999.79 999.14 998.58 998.13 997.81 997.65 997.64 997.78 998.07 998.48 999.01 999.65 1000.38 1001.18 1002.04 1002.94 1003.86 1004.77 1005.66 1006.50 1007.27 1007.95 1008.53 1009.03 1009.43 1009.75 1010.02 1010.23 1010.42 1010.58 1010.73 1010.86 1010.96 1011.03
1005.39 1004.90 1004.43 1003.96 1003.48 1002.96 1002.40 1001.77 1001.10 1000.40 999.70 999.03 998.44 997.95 997.60 997.40 997.36 997.49 997.78 998.20 998.75 999.41 1000.14 1000.94 1001.78 1002.63 1003.49 1004.34 1005.14 1005.90 1006.59 1007.21 1007.76 1008.23 1008.62 1008.96 1009.25 1009.50 1009.72 1009.92 1010.10 1010.26 1010.39 1010.48
Thickness
5727 5711 5702 5707 5711 5711 5707 5701 5697 5703 5715 5708 5699 5698 5704 5710 5710 5707 5706 5706 5708 5710 5714 5716 5717 5717 5716 5715 5714 5714 5713 5712 5712 5710 5707 5705 5703 5702 5702 5701 5700 5699 5697 5695
5706 5703 5716 5721 5719 5714 5706 5697 5696 5704 5713 5706 5695 5695 5702 5706 5707 5708 5706 5704 5705 5706 5707 5709 5711 5711 5710 5710 5709 5709 5709 5708 5709 5708 5706 5704 5701 5699 5698 5697 5695 5694 5693 5691
5700 5709 5723 5718 5711 5706 5702 5697 5698 5698 5703 5703 5695 5687 5693 5702 5706 5706 5706 5706 5705 5704 5703 5703 5705 5705 5705 5705 5705 5706 5705 5705 5705 5704 5702 5700 5696 5694 5691 5690 5689 5689 5688 5686
5704 5715 5717 5711 5707 5706 5695 5709 5707 5702 5689 5679 5687 5666 5683 5692 5696 5699 5699 5700 5700 5702 5701 5701 5701 5700 5701 5701 5703 5702 5702 5701 5701 5700 5697 5694 5690 5686 5686 5685 5684 5683 5682 5681
5699 5710 5708 5704 5709 5711 5705 5713 5708 5701 5689 5679 5679 5667 5673 5686 5685 5691 5695 5697 5698 5699 5699 5698 5698 5698 5698 5699 5698 5698 5697 5697 5696 5695 5693 5690 5686 5684 5683 5681 5679 5678 5676 5675
5702 5713 5712 5710 5716 5716 5713 5703 5695 5684 5675 5663 5672 5664 5665 5676 5686 5690 5693 5694 5695 5696 5696 5695 5695 5694 5693 5693 5693 5693 5692 5691 5690 5689 5688 5685 5682 5680 5677 5675 5673 5671 5670 5669
5690 5701 5711 5715 5705 5706 5699 5676 5658 5656 5648 5654 5672 5664 5666 5684 5693 5693 5692 5691 5691 5692 5690 5689 5687 5687 5687 5687 5687 5687 5686 5685 5684 5683 5682 5681 5678 5676 5673 5671 5668 5666 5664 5662
5670 5673 5697 5705 5699 5691 5689 5676 5653 5645 5643 5651 5665 5658 5670 5688 5693 5694 5692 5689 5687 5686 5685 5684 5684 5683 5683 5682 5682 5681 5681 5680 5679 5678 5677 5676 5675 5672 5669 5667 5665 5662 5660 5658
5665 5670 5696 5704 5705 5697 5683 5672 5673 5656 5654 5646 5649 5659 5672 5683 5683 5684 5683 5681 5679 5679 5680 5680 5679 5679 5678 5677 5677 5676 5676 5675 5674 5673 5672 5670 5669 5667 5664 5662 5660 5657 5656 5654
5674 5668 5684 5695 5698 5695 5689 5678 5658 5650 5640 5634 5643 5650 5654 5666 5670 5674 5674 5673 5673 5674 5674 5674 5673 5673 5673 5673 5672 5672 5671 5670 5669 5668 5666 5665 5663 5661 5660 5657 5654 5652 5650 5648
5674 5662 5668 5678 5676 5674 5676 5670 5660 5646 5642 5632 5629 5643 5669 5668 5670 5669 5669 5669 5669 5669 5668 5668 5667 5667 5667 5667 5666 5665 5664 5664 5663 5662 5660 5659 5657 5655 5653 5650 5648 5646 5644 5642
5667 5653 5649 5662 5678 5683 5676 5670 5658 5643 5640 5636 5630 5640 5674 5671 5671 5669 5666 5665 5664 5664 5663 5662 5661 5659 5659 5659 5659 5658 5658 5657 5657 5656 5654 5652 5651 5648 5646 5644 5642 5640 5638 5636
5663 5647 5637 5644 5655 5667 5668 5669 5663 5652 5639 5630 5626 5639 5667 5666 5664 5664 5662 5659 5657 5656 5655 5654 5653 5652 5651 5651 5651 5651 5651 5650 5650 5649 5647 5645 5643 5641 5639 5637 5635 5633 5631 5628
5663 5643 5636 5635 5642 5652 5654 5660 5662 5649 5634 5632 5636 5643 5653 5656 5655 5656 5655 5654 5652 5650 5648 5647 5646 5645 5644 5644 5644 5644 5644 5644 5643 5641 5639 5637 5636 5634 5632 5630 5628 5626 5624 5621
5654 5640 5642 5646 5652 5654 5653 5654 5656 5650 5646 5638 5643 5643 5649 5653 5653 5652 5650 5648 5646 5643 5642 5641 5639 5638 5637 5636 5636 5637 5636 5636 5636 5634 5632 5630 5628 5627 5625 5622 5620 5618 5616 5614
5642 5638 5639 5640 5649 5650 5646 5649 5650 5649 5647 5642 5642 5642 5651 5651 5648 5645 5642 5642 5639 5637 5636 5635 5633 5632 5630 5628 5628 5628 5628 5627 5627 5625 5624 5623 5620 5618 5616 5614 5612 5610 5608 5605
5632 5630 5626 5624 5637 5640 5631 5639 5641 5641 5643 5642 5635 5640 5644 5640 5640 5639 5637 5636 5633 5631 5630 5628 5626 5624 5623 5622 5622 5621 5620 5619 5618 5617 5616 5615 5613 5610 5608 5606 5603 5601 5599 5597
5628 5622 5614 5615 5623 5615 5629 5644 5644 5640 5640 5640 5639 5638 5638 5637 5636 5635 5633 5630 5627 5625 5623 5621 5620 5618 5617 5615 5614 5613 5612 5610 5609 5607 5606 5606 5605 5602 5600 5597 5594 5592 5590 5588
5628 5619 5608 5604 5606 5611 5627 5637 5637 5633 5628 5634 5632 5631 5630 5629 5626 5623 5626 5625 5622 5620 5618 5616 5614 5612 5610 5608 5606 5604 5602 5600 5599 5598 5597 5596 5595 5593 5591 5588 5586 5584 5582 5580
5619 5614 5603 5598 5598 5599 5617 5633 5637 5631 5617 5627 5626 5623 5621 5619 5608 5611 5619 5618 5615 5613 5611 5608 5606 5604 5602 5600 5598 5595 5592 5590 5589 5589 5588 5587 5586 5584 5582 5580 5578 5576 5574 5572
5605 5601 5595 5592 5592 5600 5617 5626 5628 5609 5610 5622 5621 5618 5615 5611 5610 5612 5612 5610 5609 5606 5603 5601 5598 5595 5593 5591 5589 5586 5583 5581 5581 5580 5578 5577 5576 5574 5573 5571 5569 5567 5565 5563
5594 5591 5588 5585 5583 5593 5615 5616 5609 5608 5615 5616 5614 5613 5610 5607 5607 5606 5605 5603 5601 5598 5595 5592 5588 5585 5584 5582 5580 5576 5574 5573 5572 5570 5568 5566 5565 5565 5564 5561 5559 5557 5555 5553
5590 5592 5589 5589 5592 5602 5609 5610 5611 5610 5608 5608 5607 5607 5605 5601 5598 5597 5595 5593 5592 5589 5586 5583 5579 5576 5573 5572 5570 5567 5565 5564 5562 5559 5557 5555 5554 5553 5552 5550 5548 5546 5545 5543
5586 5590 5585 5584 5590 5595 5599 5601 5602 5603 5602 5603 5602 5600 5597 5593 5590 5587 5585 5583 5582 5580 5577 5574 5570 5567 5564 5562 5560 5558 5556 5554 5552 5549 5546 5544 5542 5542 5540 5539 5538 5536 5535 5533
5579 5581 5575 5575 5582 5586 5589 5591 5593 5594 5594 5595 5593 5592 5590 5586 5582 5579 5577 5574 5572 5570 5568 5565 5562 5559 5556 5553 5550 5549 5547 5544 5541 5538 5536 5534 5532 5530 5529 5528 5527 5526 5525 5524
5572 5572 5569 5571 5577 5575 5578 5584 5586 5585 5585 5585 5584 5582 5581 5579 5575 5572 5568 5566 5563 5561 5558 5556 5553 5550 5547 5544 5541 5540 5538 5535 5532 5528 5526 5524 5522 5520 5518 5517 5516 5516 5516 5516